{"data":{"norad_id":68206,"epoch":"2026-05-25T03:07:39.506304Z","epoch_age_seconds":66925,"freshness":"FRESH","line1":"1 68206U 26052J   26145.13031836  .00129702  42301-5  17195-2 0  9991","line2":"2 68206  97.3343 215.2119 0508032 144.5871 219.0223 14.77337148 10298","mean_motion":14.77337148,"eccentricity":0.0508032,"inclination_deg":97.3343,"raan_deg":215.2119,"arg_perigee_deg":144.5871,"mean_anomaly_deg":219.0223,"bstar":0.0017195,"rev_number":1029,"period_min":97.472672500617,"perigee_km":281.31297874796,"apogee_km":994.17119563266,"semimajor_km":7015.8790871903,"source":"CELESTRAK","updated_at":"2026-05-25T13:38:07.644148Z"}}